Weather History for KCNO - March, 2013

Change the Weather History Date:

Sunday, March 24, 2013

  Actual Average Record
Temperature  
Mean Temperature 61 °F -  
Max Temperature 81 °F 68 °F 86 °F (2008)
Min Temperature 42 °F 43 °F 35 °F (2011)
Degree Days  
Heating Degree Days 4    
Growing Degree Days 11 (Base 50)    
Moisture  
Dew Point 45 °F    
Average Humidity 79    
Maximum Humidity 100    
Minimum Humidity 19    
Precipitation  
Precipitation 0.00 in - - ()
Sea Level Pressure  
Sea Level Pressure 29.98 in    
Wind  
Wind Speed 1 mph (WNW)    
Max Wind Speed 13 mph    
Max Gust Speed -    
Visibility 4 miles    
Events Fog    
Averages and records for this station are not official NWS values.
T = Trace of Precipitation, MM = Missing Value Source: NWS Daily Summary

Daily Weather History Graph

Daily Weather History Graph

Search for Another Location

Airport or City:

Trip Planner

Search our weather history database for the weather conditions in past years. The results will help you decide how hot, cold, wet, or windy it might be!

Date:

Astronomy

Mar. 24, 2013 Rise Set
Actual Time 6:48 AM PDT 7:05 PM PDT
Civil Twilight 6:23 AM PDT 7:30 PM PDT
Nautical Twilight 5:54 AM PDT 7:59 PM PDT
Astronomical Twilight 5:24 AM PDT 8:29 PM PDT
Moon 4:43 PM PDT (3/24) 4:54 AM PDT (3/24)
Length of Visible Light 13h 07m
Length of Day
12h 17m
Waxing Gibbous, 92% of the Moon is Illuminated
Mar 24
Waxing Gibbous
Mar 27
Full
Apr 2
Last Quarter
Apr 10
New
Apr 18
First Quarter

Hourly Weather History & Observations

Time (PDT) Temp. Windchill Dew Point Humidity Pressure Visibility Wind Dir Wind Speed Gust Speed Precip Events Conditions
12:53 AM 51.1 °F - 48.0 °F 89% 30.01 in 5.0 mi Calm Calm - N/A   Clear
1:53 AM 50.0 °F - 48.0 °F 93% 30.00 in 4.0 mi Calm Calm - N/A   Clear
2:53 AM 48.0 °F - 46.0 °F 93% 30.00 in 3.0 mi Calm Calm - N/A   Clear
3:16 AM 48.2 °F - 46.4 °F 93% 30.00 in 2.5 mi Calm Calm - N/A   Clear
3:32 AM 48.2 °F - 46.4 °F 93% 29.99 in 2.5 mi Calm Calm - N/A   Clear
3:53 AM 46.0 °F - 46.0 °F 100% 29.98 in 1.0 mi Calm Calm - N/A   Clear
4:07 AM 46.4 °F - 44.6 °F 93% 29.99 in 2.5 mi Calm Calm - N/A   Clear
4:17 AM 44.6 °F - 44.6 °F 100% 29.99 in 3.0 mi Calm Calm - N/A   Clear
4:26 AM 44.6 °F - 42.8 °F 93% 29.99 in 1.5 mi Calm Calm - N/A   Clear
4:53 AM 46.0 °F 44.8 °F 44.1 °F 93% 29.99 in 2.0 mi ENE 3.5 mph - N/A   Clear
5:12 AM 44.6 °F - 44.6 °F 100% 30.00 in 1.0 mi Calm Calm - N/A   Clear
5:23 AM 44.6 °F - 44.6 °F 100% 30.00 in 0.8 mi Calm Calm - N/A   Mist
5:27 AM 46.4 °F - 44.6 °F 93% 30.00 in 0.5 mi Calm Calm - N/A Fog Fog
5:40 AM 42.8 °F - 42.8 °F 100% 30.00 in 0.5 mi Calm Calm - N/A Fog Fog
5:53 AM 43.0 °F - 43.0 °F 100% 30.00 in 0.2 mi Calm Calm - N/A Fog Fog
6:25 AM 44.6 °F 43.1 °F 44.6 °F 100% 30.00 in 1.0 mi North 3.5 mph - N/A   Mist
6:39 AM 44.6 °F - 44.6 °F 100% 30.01 in 0.5 mi Calm Calm - N/A Fog Fog
6:53 AM 44.1 °F - 42.1 °F 93% 30.00 in 4.0 mi Calm Calm - N/A Fog Patches of Fog
7:53 AM 46.9 °F - 46.0 °F 97% 30.02 in 3.0 mi Calm Calm - N/A   Clear
8:48 AM 50.0 °F - 50.0 °F 100% 30.03 in 2.0 mi Calm Calm - N/A   Clear
8:53 AM 51.1 °F - 51.1 °F 100% 30.02 in 2.0 mi Calm Calm - N/A   Clear
9:26 AM 53.6 °F - 51.8 °F 94% 30.03 in 3.0 mi Calm Calm - N/A   Clear
9:53 AM 59.0 °F - 50.0 °F 72% 30.02 in 3.0 mi Calm Calm - N/A   Haze
10:53 AM 64.9 °F - 50.0 °F 58% 30.00 in 4.0 mi WNW 3.5 mph - N/A   Haze
11:53 AM 72.0 °F - 44.1 °F 37% 29.98 in 6.0 mi Calm Calm - N/A   Haze
12:53 PM 75.9 °F - 36.0 °F 23% 29.96 in 8.0 mi Calm Calm - N/A   Partly Cloudy
1:53 PM 79.0 °F - 33.1 °F 19% 29.93 in 7.0 mi Variable 4.6 mph - N/A   Clear
2:53 PM 80.1 °F - 37.0 °F 21% 29.90 in 8.0 mi Variable 4.6 mph - N/A   Partly Cloudy
3:53 PM 80.1 °F - 43.0 °F 27% 29.89 in 10.0 mi West 12.7 mph - N/A   Scattered Clouds
5:53 PM 72.0 °F - 46.0 °F 40% 29.88 in 10.0 mi WSW 12.7 mph - N/A   Scattered Clouds
6:53 PM 66.9 °F - 48.0 °F 51% 29.90 in 10.0 mi WSW 10.4 mph - N/A   Partly Cloudy
7:53 PM 61.0 °F - 50.0 °F 67% 29.91 in 8.0 mi West 9.2 mph - N/A   Clear
8:53 PM 59.0 °F - 48.9 °F 69% 29.92 in 7.0 mi West 5.8 mph - N/A   Clear
9:53 PM 57.0 °F - 48.0 °F 72% 29.94 in 7.0 mi Calm Calm - N/A   Clear
10:53 PM 55.0 °F - 48.0 °F 77% 29.95 in 6.0 mi Calm Calm - N/A   Haze
11:53 PM 52.0 °F - 48.0 °F 86% 29.95 in 5.0 mi Calm Calm - N/A   Clear